This demonstration page uses our WeatherBlox Daily Observations layout. Learn more.

38.89511, -77.03637

Hourly Observations for September 19, 2017

Temp ( °F °C ) Dew Point ( °F °C ) Humidity (%) Winds ( mph kmh ) Pressure ( in mb ) Visibility ( mi km ) Precip ( " mm )
12:52 am 00:52 Mostly Clear 70 21.1 67 19.4 90 90 N 10 17 30 1016 10 16.09344 0 0
1:20 am 01:20 Mostly Cloudy 70 21.1 68 20 93 93 N 7 11 30.03 1017 10 16.09344 0 0
1:48 am 01:48 Partly Cloudy 70 21 66 19 88 88 N 12 19 30.03 1017 10 16.09344 0 0
1:52 am 01:52 Partly Cloudy 70 21.1 67 19.4 90 90 N 9 15 30 1016 10 16.09344 0 0
2:19 am 02:19 Cloudy 69 20.6 67 19.4 93 93 N 9 15 30.03 1017 10 16.09344 0 0
2:52 am 02:52 Cloudy 70 21.1 67 19.4 90 90 NNE 10 17 30 1016 10 16.09344 0 0
3:52 am 03:52 Cloudy 71 21.7 67 19.4 87 87 NNE 8 13 29.97 1015 10 16.09344 0 0
4:20 am 04:20 Partly Cloudy 70 21.1 67 19.4 90 90 N 9 15 30 1016 10 16.09344 0 0
4:52 am 04:52 Partly Cloudy 70 21.1 67 19.4 90 90 N 10 17 29.97 1015 10 16.09344 0 0
5:52 am 05:52 Partly Cloudy 69 20.6 66 18.9 90 90 N 13 20 29.97 1015 10 16.09344 0 0
6:28 am 06:28 Cloudy 68 20 66 18.9 93 93 N 12 19 30 1016 10 16.09344 0 0
6:52 am 06:52 Cloudy 69 20.6 66 18.9 90 90 N 14 22 29.97 1015 10 16.09344 0 0
7:52 am 07:52 Cloudy 70 21.1 67 19.4 90 90 NNW 10 17 29.97 1015 10 16.09344 0 0
8:52 am 08:52 Cloudy 72 22.2 67 19.4 84 84 N 12 19 29.97 1015 10 16.09344 0 0
9:52 am 09:52 Cloudy 74 23.3 68 20 82 82 NNE 12 19 30 1016 10 16.09344 0 0
10:52 am 10:52 Mostly Cloudy 77 25 68 20 74 74 N 13 20 30 1016 10 16.09344 0 0
11:31 am 11:31 Partly Cloudy 78 25.6 68 20 71 71 NNW 14 22 30 1016 10 16.09344 0 0
11:52 am 11:52 Mostly Cloudy 77 25 67 19.4 71 71 NW 13 20 29.97 1015 10 16.09344 0 0
12:52 pm 12:52 Mostly Cloudy 80 26.7 68 20 67 67 NNW 14 22 29.97 1015 10 16.09344 0 0
1:52 pm 13:52 Partly Cloudy 82 27.8 68 20 63 63 NNW 13 20 29.94 1014 10 16.09344 0 0
2:52 pm 14:52 Partly Cloudy 83 28.3 67 19.4 59 59 N 16 26 29.91 1013 10 16.09344 0 0
3:52 pm 15:52 Mostly Cloudy 82 27.8 67 19.4 60 60 N 16 26 29.88 1012 10 16.09344 0 0
4:52 pm 16:52 Mostly Cloudy 83 28.3 67 19.4 59 59 NNW 16 26 29.88 1012 10 16.09344 0 0
5:52 pm 17:52 Mostly Cloudy 82 27.8 66 18.9 58 58 NNW 15 24 29.88 1012 10 16.09344 0 0
6:52 pm 18:52 Partly Cloudy 80 26.7 67 19.4 64 64 N 16 26 29.88 1012 10 16.09344 0 0
7:52 pm 19:52 Partly Cloudy 78 25.6 66 18.9 67 67 N 10 17 29.88 1012 10 16.09344 0 0
8:52 pm 20:52 Partly Cloudy 77 25 66 18.9 69 69 NW 10 17 29.88 1012 10 16.09344 0 0
9:52 pm 21:52 Mostly Cloudy 74 23.3 67 19.4 79 79 N 9 15 29.91 1013 10 16.09344 0 0
10:52 pm 22:52 Partly Cloudy 75 23.9 66 18.9 74 74 N 12 19 29.91 1013 10 16.09344 0 0
11:52 pm 23:52 Partly Cloudy 73 22.8 65 18.3 76 76 N 6 9 29.91 1013 10 16.09344 0 0

Powered by AerisWeather